TimeEDT,TemperatureF,Dew PointF,Humidity,Sea Level PressureIn,VisibilityMPH,Wind Direction,Wind SpeedMPH,Gust SpeedMPH,PrecipitationIn,Events,Conditions,WindDirDegrees,DateUTC
12:53 AM,75.0,69.1,82,30.14,10.0,SSW,4.6,-,N/A,,Partly Cloudy,200,2013-06-25 04:53:00
1:53 AM,73.9,69.1,85,30.14,10.0,Calm,Calm,-,N/A,,Clear,0,2013-06-25 05:53:00
2:30 AM,73.4,69.8,88,30.17,10.0,SW,3.5,-,N/A,,Mostly Cloudy,220,2013-06-25 06:30:00
2:53 AM,73.0,69.1,87,30.13,10.0,Calm,Calm,-,N/A,,Overcast,0,2013-06-25 06:53:00
3:25 AM,73.4,69.8,88,30.16,10.0,Calm,Calm,-,N/A,,Scattered Clouds,0,2013-06-25 07:25:00
3:53 AM,73.0,69.1,87,30.12,10.0,SSW,3.5,-,N/A,,Clear,210,2013-06-25 07:53:00
4:53 AM,72.0,69.1,91,30.12,10.0,SSW,3.5,-,N/A,,Clear,200,2013-06-25 08:53:00
5:09 AM,71.6,69.8,94,30.15,10.0,South,3.5,-,N/A,,Scattered Clouds,190,2013-06-25 09:09:00
5:27 AM,71.6,69.8,94,30.16,10.0,South,4.6,-,N/A,,Mostly Cloudy,190,2013-06-25 09:27:00
5:35 AM,71.6,69.8,94,30.15,10.0,South,3.5,-,N/A,,Scattered Clouds,190,2013-06-25 09:35:00
5:53 AM,71.1,69.1,93,30.13,10.0,South,4.6,-,N/A,,Partly Cloudy,190,2013-06-25 09:53:00
6:14 AM,71.6,69.8,94,30.16,10.0,SSW,6.9,-,N/A,,Mostly Cloudy,210,2013-06-25 10:14:00
6:53 AM,71.1,68.0,90,30.14,10.0,SW,8.1,-,N/A,,Scattered Clouds,220,2013-06-25 10:53:00
7:02 AM,71.6,68.0,88,30.17,10.0,SSW,8.1,-,N/A,,Mostly Cloudy,210,2013-06-25 11:02:00
7:53 AM,72.0,69.1,91,30.16,10.0,West,4.6,-,N/A,,Overcast,260,2013-06-25 11:53:00
8:48 AM,73.4,69.8,88,30.19,10.0,WSW,5.8,-,N/A,,Mostly Cloudy,240,2013-06-25 12:48:00
8:53 AM,73.9,69.1,85,30.16,10.0,WSW,5.8,-,N/A,,Mostly Cloudy,250,2013-06-25 12:53:00
9:15 AM,75.2,69.8,83,30.18,10.0,Calm,Calm,-,N/A,,Scattered Clouds,0,2013-06-25 13:15:00
9:53 AM,79.0,68.0,69,30.16,10.0,WSW,6.9,-,N/A,,Clear,250,2013-06-25 13:53:00
10:53 AM,82.9,66.9,58,30.15,10.0,WSW,9.2,-,N/A,,Clear,250,2013-06-25 14:53:00
11:53 AM,84.9,66.0,53,30.14,10.0,WSW,11.5,-,N/A,,Clear,240,2013-06-25 15:53:00
12:53 PM,87.1,68.0,53,30.13,10.0,SW,11.5,18.4,N/A,,Partly Cloudy,220,2013-06-25 16:53:00
1:53 PM,88.0,66.0,48,30.10,10.0,SW,11.5,21.9,N/A,,Partly Cloudy,230,2013-06-25 17:53:00
2:53 PM,87.1,66.0,49,30.06,10.0,SW,9.2,17.3,N/A,,Clear,230,2013-06-25 18:53:00
3:53 PM,88.0,66.0,48,30.06,10.0,West,15.0,20.7,N/A,,Scattered Clouds,260,2013-06-25 19:53:00
4:53 PM,86.0,68.0,55,30.05,10.0,WSW,9.2,-,N/A,,Mostly Cloudy,250,2013-06-25 20:53:00
5:53 PM,82.9,68.0,60,30.05,10.0,Variable,5.8,-,N/A,,Mostly Cloudy,0,2013-06-25 21:53:00
6:53 PM,84.0,64.9,53,30.04,10.0,Calm,Calm,-,N/A,,Clear,0,2013-06-25 22:53:00
7:53 PM,80.1,68.0,67,30.06,10.0,SSE,8.1,-,N/A,,Clear,150,2013-06-25 23:53:00
8:53 PM,80.1,69.1,69,30.05,10.0,South,6.9,-,N/A,,Clear,180,2013-06-26 00:53:00
9:53 PM,77.0,69.1,76,30.06,10.0,South,5.8,-,N/A,,Clear,190,2013-06-26 01:53:00
10:53 PM,75.9,69.1,79,30.06,10.0,SSE,3.5,-,N/A,,Clear,160,2013-06-26 02:53:00
11:53 PM,75.0,69.1,82,30.05,10.0,South,6.9,-,N/A,,Clear,190,2013-06-26 03:53:00